DW7076 Floda SE current weather conditions

sailwx.info

Wind from 213 at 4 knots gusting 11

Air temperature 7.8° C
Dewpoint 5.1° C

Last reported at 2015-May-30 21:46 UTC.
Time now 2015-May-30 22:45 UTC

Location: N 57°49' E 012°21'.
View on Google Maps.

See reports from other nearby stations

  
Tides and Currents Weather Stations Pressure Air Temp Water Temp Dewpoint Dewpoint Depression Visibility Wind Speed Wind Dir Waves Ship Positions
date/time (UTC)wind fromknots sea level pressurealtimeterstation pressurevisibilityair tempwater tempwave heightnotes
2015-May-30 21:46 213 4 gusting 11 7.8
2015-May-30 21:36 092 4 gusting 10 8.3
2015-May-30 21:26 218 4 gusting 13 8.3
2015-May-30 21:16 020 1 gusting 6 8.3
2015-May-30 21:06 056 1 gusting 8 8.3
2015-May-30 20:56 242 4 gusting 10 8.3
2015-May-30 20:46 213 2 gusting 10 8.3
2015-May-30 20:36 354 1 gusting 10 8.3
2015-May-30 20:26 319 4 gusting 10 8.3
2015-May-30 20:16 331 2 gusting 11 8.3
2015-May-30 20:06 351 5 gusting 15 8.3
2015-May-30 19:56 214 3 gusting 10 8.9
2015-May-30 19:46 190 2 gusting 14 8.9
2015-May-30 19:36 072 4 gusting 10 8.9
2015-May-30 19:26 255 4 gusting 10 8.9
2015-May-30 19:16 194 1 gusting 10 8.9
2015-May-30 19:06 283 1 gusting 10 8.9
2015-May-30 18:56 342 1 gusting 10 8.9
2015-May-30 18:46 171 2 gusting 10 8.9
2015-May-30 18:36 302 2 gusting 10 9.4
2015-May-30 18:26 107 1 gusting 8 9.4
2015-May-30 18:16 236 3 gusting 14 9.4
2015-May-30 18:06 233 5 gusting 12 9.4
2015-May-30 17:56 338 2 gusting 5 9.4
2015-May-30 17:46 350 4 gusting 12 9.4
2015-May-30 17:36 309 5 gusting 13 10.0
2015-May-30 17:26 295 1 gusting 10 10.0
2015-May-30 17:16 296 5 gusting 13 10.0
2015-May-30 17:06 270 3 gusting 13 10.0
2015-May-30 16:56 176 4 gusting 10 10.0
2015-May-30 16:46 276 2 gusting 12 10.0
2015-May-30 16:36 233 3 gusting 13 10.0
2015-May-30 16:26 009 2 gusting 13 9.4
2015-May-30 16:16 220 2 gusting 11 9.4
2015-May-30 16:06 230 6 gusting 13 9.4
2015-May-30 15:56 279 2 gusting 13 9.4
2015-May-30 15:46 295 2 gusting 8 9.4
2015-May-30 15:36 199 5 gusting 13 9.4
2015-May-30 15:26 008 2 gusting 8 9.4
2015-May-30 15:16 285 1 gusting 10 9.4
2015-May-30 15:06 207 4 gusting 8 9.4
2015-May-30 14:56 295 1 gusting 6 9.4
2015-May-30 14:46 166 4 gusting 10 10.0
2015-May-30 14:36 302 3 gusting 6 10.0
2015-May-30 14:26 282 4 gusting 8 10.6
2015-May-30 14:16 295 2 gusting 11 10.0
2015-May-30 14:06 003 1 gusting 11 10.0
2015-May-30 13:56 268 3 gusting 8 10.0
2015-May-30 13:46 213 2 gusting 13 10.0
2015-May-30 13:36 168 2 gusting 7 9.4
2015-May-30 13:26 118 2 gusting 8 9.4
2015-May-30 13:16 053 4 gusting 10 10.0
2015-May-30 13:06 324 4 gusting 11 10.0
2015-May-30 12:56 279 3 gusting 10 9.4
2015-May-30 12:46 323 5 gusting 11 9.4
2015-May-30 12:36 277 1 gusting 6 9.4
2015-May-30 12:26 295 2 gusting 8 9.4
2015-May-30 12:16 178 2 gusting 6 9.4
2015-May-30 12:06 091 1 gusting 12 10.0
2015-May-30 11:56 034 2 gusting 8 10.0
2015-May-30 11:46 202 2 gusting 8 10.0
2015-May-30 11:36 237 1 gusting 6 10.0
2015-May-30 11:26 218 1 gusting 10 10.0
2015-May-30 11:16 159 2 gusting 8 10.6
2015-May-30 11:06 310 3 gusting 6 10.6
2015-May-30 10:56 177 0 gusting 4 10.6
2015-May-30 10:46 233 10.6
2015-May-30 10:36 161 0 gusting 5 10.6
2015-May-30 10:26 159 0 gusting 7 10.6
2015-May-30 10:16 223 1 gusting 6 10.6
2015-May-30 10:06 192 1 gusting 8 10.0
2015-May-30 09:56 161 1 gusting 6 10.0
2015-May-30 09:46 192 0 gusting 7 10.0
2015-May-30 09:36 158 1 gusting 4 10.0
2015-May-30 09:26 160 2 gusting 6 10.0
2015-May-30 09:16 179 2 gusting 6 10.0
2015-May-30 09:06 120 1 gusting 6 10.6
2015-May-30 08:56 074 1 gusting 6 10.6
2015-May-30 08:46 176 1 gusting 5 10.6
2015-May-30 08:36 103 0 gusting 6 11.1
2015-May-30 08:26 199 2 gusting 6 11.1
2015-May-30 08:16 132 0 gusting 2 10.6
2015-May-30 08:06 155 0 gusting 4 10.0
2015-May-30 07:56 113 10.0
2015-May-30 07:46 169 0 gusting 2 9.4
2015-May-30 07:36 161 1 gusting 2 9.4
2015-May-30 07:26 132 9.4
2015-May-30 07:16 137 0 gusting 6 8.9
2015-May-30 07:06 185 1 gusting 6 8.9
2015-May-30 06:56 121 0 gusting 2 8.9
2015-May-30 06:46 172 0 gusting 2 8.3
2015-May-30 06:36 116 2 gusting 7 8.3
2015-May-30 06:26 135 1 gusting 7 8.3
2015-May-30 06:16 139 0 gusting 2 8.3
2015-May-30 06:06 128 0 gusting 6 7.8
2015-May-30 05:56 126 0 gusting 6 7.8
2015-May-30 05:46 096 2 gusting 6 7.8
2015-May-30 05:36 091 2 gusting 6 7.8
2015-May-30 05:26 087 1 gusting 7 7.8
2015-May-30 05:16 110 1 gusting 6 7.8
2015-May-30 05:06 096 2 gusting 12 7.8
2015-May-30 04:56 086 1 gusting 6 7.8
2015-May-30 04:46 084 1 gusting 7 7.8
2015-May-30 04:36 092 1 gusting 5 7.8
2015-May-30 04:26 101 1 gusting 6 7.8
2015-May-30 04:16 051 2 gusting 5 7.8
2015-May-30 04:06 105 1 gusting 6 7.2
2015-May-30 03:56 103 1 gusting 2 7.2
2015-May-30 03:46 141 1 gusting 7 7.2
2015-May-30 03:36 084 1 gusting 6 7.2
2015-May-30 03:26 078 1 gusting 6 7.2
2015-May-30 03:16 096 0 gusting 7 7.2
2015-May-30 03:06 082 1 gusting 5 7.8
2015-May-30 02:56 117 1 gusting 6 7.8
2015-May-30 02:46 124 1 gusting 6 7.8
2015-May-30 02:36 103 0 gusting 2 7.8
2015-May-30 02:26 091 1 gusting 2 7.8
2015-May-30 02:16 107 2 gusting 5 7.8
2015-May-30 02:06 085 0 gusting 2 7.8
2015-May-30 01:56 074 1 gusting 2 7.8
2015-May-30 01:46 150 1 gusting 2 7.8
2015-May-30 01:36 084 0 gusting 2 8.3
2015-May-30 01:26 075 0 gusting 2 8.3
2015-May-30 01:16 111 0 gusting 2 8.3
2015-May-30 01:06 111 0 gusting 10 8.3
2015-May-30 00:56 138 0 gusting 2 8.3
2015-May-30 00:46 102 0 gusting 8 8.3
2015-May-30 00:36 133 2 gusting 6 8.3
2015-May-30 00:26 105 1 gusting 10 8.3
2015-May-30 00:16 043 0 gusting 2 8.3
2015-May-29 23:56 106 1 gusting 6 8.3
2015-May-29 23:46 069 0 gusting 4 8.3
2015-May-29 23:36 098 1 gusting 4 8.3
2015-May-29 23:26 097 0 gusting 2 7.8
2015-May-29 23:16 154 1 gusting 5 7.8
2015-May-29 23:06 136 0 gusting 2 7.8
2015-May-29 22:56 078 0 gusting 1 7.8
2015-May-29 22:46 078 0 gusting 2 7.8
2015-May-29 22:36 132 0 gusting 1 7.8
2015-May-29 22:26 129 7.8
2015-May-29 22:16 183 7.8
2015-May-29 22:06 103 7.8
2015-May-29 21:56 103 7.8
2015-May-29 21:46 164 7.8
2015-May-29 21:36 164 8.3
2015-May-29 21:26 164 8.3
2015-May-29 21:16 164 8.3
2015-May-29 21:06 164 8.3
2015-May-29 20:56 164 8.3
2015-May-29 20:46 137 8.9
2015-May-29 20:36 137 8.9
2015-May-29 20:26 130 0 gusting 6 8.9
2015-May-29 20:16 192 0 gusting 6 8.9
2015-May-29 20:06 135 2 gusting 6 8.9
2015-May-29 19:56 169 1 gusting 6 9.4
2015-May-29 19:46 141 9.4
2015-May-29 19:36 136 0 gusting 5 9.4
2015-May-29 19:26 118 0 gusting 5 9.4
2015-May-29 19:16 157 1 gusting 5 9.4
2015-May-29 19:06 169 9.4
2015-May-29 18:56 083 0 gusting 2 10.0
2015-May-29 18:46 144 10.0
2015-May-29 18:36 190 0 gusting 2 10.0
2015-May-29 18:26 165 10.0
2015-May-29 18:16 149 0 gusting 4 10.0
2015-May-29 18:06 178 0 gusting 2 10.0
2015-May-29 17:56 183 2 gusting 6 10.6
2015-May-29 17:46 122 0 gusting 5 10.6
2015-May-29 17:36 122 4 gusting 6 10.6
2015-May-29 17:26 149 1 gusting 10 10.6
2015-May-29 17:16 176 2 gusting 10 10.6
2015-May-29 17:06 152 1 gusting 7 10.6
2015-May-29 16:56 188 2 gusting 7 11.1
2015-May-29 16:46 191 0 gusting 7 11.1
2015-May-29 16:36 203 4 gusting 8 11.1
2015-May-29 16:26 188 2 gusting 7 11.1
2015-May-29 16:16 161 2 gusting 7 11.1
2015-May-29 16:06 179 1 gusting 6 11.1
2015-May-29 15:56 241 3 gusting 10 11.1
2015-May-29 15:46 163 1 gusting 6 11.1
2015-May-29 15:36 157 3 gusting 6 11.1
2015-May-29 15:26 195 3 gusting 6 11.1
2015-May-29 15:16 167 1 gusting 7 11.1
2015-May-29 15:06 151 1 gusting 4 10.6
2015-May-29 14:56 198 1 gusting 5 10.0
2015-May-29 14:46 187 2 gusting 10 10.0
2015-May-29 14:36 159 2 gusting 8 10.6
2015-May-29 14:26 239 2 gusting 12 10.6
2015-May-29 14:16 275 1 gusting 10 11.1
2015-May-29 14:06 123 4 gusting 7 11.1
2015-May-29 13:56 174 1 gusting 14 11.1
2015-May-29 13:36 209 1 gusting 6 11.1
2015-May-29 13:26 138 2 gusting 6 10.6
2015-May-29 13:16 177 0 gusting 4 10.0
2015-May-29 13:06 149 1 gusting 6 10.0
2015-May-29 12:56 243 1 gusting 7 10.0
2015-May-29 12:46 199 2 gusting 11 10.0
2015-May-29 12:36 230 0 gusting 6 10.0
2015-May-29 12:26 156 1 gusting 5 10.0
2015-May-29 12:16 120 0 gusting 7 10.0
2015-May-29 12:06 137 1 gusting 17 10.0
2015-May-29 11:56 214 1 gusting 6 10.6
2015-May-29 11:26 157 10.0
2015-May-29 11:16 307 2 gusting 13 11.1
2015-May-29 11:06 199 2 gusting 11 12.8
2015-May-29 10:56 130 2 gusting 10 13.3
2015-May-29 10:46 314 2 gusting 12 13.3
2015-May-29 10:36 218 3 gusting 15 13.9
2015-May-29 10:26 253 1 gusting 10 12.8
2015-May-29 10:16 188 2 gusting 7 12.8
2015-May-29 10:06 235 4 gusting 11 12.8
2015-May-29 09:36 122 3 gusting 12 13.3
2015-May-29 09:26 251 3 gusting 10 12.8
2015-May-29 09:16 189 2 gusting 13 12.8
2015-May-29 09:06 155 4 gusting 15 11.7
2015-May-29 08:56 198 4 gusting 11 11.7
2015-May-29 08:46 005 0 gusting 10 10.6
2015-May-29 08:36 273 2 gusting 10 10.6
2015-May-29 08:26 232 2 gusting 8 10.0
2015-May-29 08:16 054 0 gusting 6 9.4
2015-May-29 08:06 242 5 gusting 10 10.0
2015-May-29 07:56 220 4 gusting 10 10.0
2015-May-29 07:46 269 1 gusting 8 10.0
2015-May-29 07:36 165 1 gusting 6 10.0
2015-May-29 07:26 196 1 gusting 5 8.9
2015-May-29 07:16 158 2 gusting 6 8.3
2015-May-29 07:06 182 0 gusting 2 8.3
2015-May-29 06:56 200 1 gusting 2 7.2
2015-May-29 06:46 139 6.7
2015-May-29 06:36 302 2 gusting 6 6.7
2015-May-29 06:26 175 0 gusting 4 7.2
2015-May-29 06:16 022 0 gusting 8 7.2
2015-May-29 06:06 331 0 gusting 6 7.8
2015-May-29 05:56 231 0 gusting 6 7.8
2015-May-29 05:46 119 1 gusting 6 8.3
2015-May-29 05:36 131 4 gusting 10 8.3
2015-May-29 05:26 284 1 gusting 6 8.3
2015-May-29 05:16 151 1 gusting 6 7.8
2015-May-29 05:06 160 1 gusting 6 7.8
2015-May-29 04:56 297 0 gusting 4 7.2
2015-May-29 04:46 176 1 gusting 5 7.2
2015-May-29 04:36 130 2 gusting 5 7.2
2015-May-29 04:26 196 0 gusting 4 7.2
2015-May-29 04:16 184 6.7
2015-May-29 04:06 234 0 gusting 5 6.7
2015-May-29 03:56 156 0 gusting 5 6.7
2015-May-29 03:46 169 1 gusting 5 6.7
2015-May-29 03:36 134 0 gusting 5 6.7
2015-May-29 03:26 163 0 gusting 5 6.1
2015-May-29 03:16 165 0 gusting 5 6.1
2015-May-29 03:06 196 0 gusting 4 6.1
2015-May-29 02:56 259 1 gusting 6 6.1
2015-May-29 02:46 171 0 gusting 2 6.1
2015-May-29 02:36 065 0 gusting 6 6.7
2015-May-29 02:26 158 0 gusting 1 6.7
2015-May-29 02:16 202 1 gusting 2 6.7
2015-May-29 02:06 348 0 gusting 2 6.7
2015-May-29 01:56 210 0 gusting 6 6.7
2015-May-29 01:46 208 0 gusting 5 6.7
2015-May-29 01:36 106 1 gusting 4 6.7
2015-May-29 01:26 112 0 gusting 2 6.7
2015-May-29 01:16 199 1 gusting 4 6.7
2015-May-29 01:06 307 0 gusting 4 6.7
2015-May-29 00:56 200 0 gusting 10 6.7
2015-May-29 00:46 259 1 gusting 10 6.7
2015-May-29 00:36 303 1 gusting 4 6.7
2015-May-29 00:26 117 0 gusting 6 6.7
2015-May-29 00:16 233 3 gusting 8 7.2
2015-May-29 00:06 152 0 gusting 5 7.2
2015-May-28 23:56 170 1 gusting 6 7.2
2015-May-28 23:46 151 1 gusting 8 7.2
2015-May-28 23:36 094 0 gusting 4 7.2
2015-May-28 23:26 217 3 gusting 6 7.2
2015-May-28 23:16 308 1 gusting 6 7.2
2015-May-28 23:06 190 1 gusting 8 7.2
2015-May-28 22:56 196 0 gusting 6 7.2
2015-May-28 22:46 155 0 gusting 6 7.2
2015-May-28 22:36 063 0 gusting 2 7.2
2015-May-28 22:26 170 0 gusting 4 7.2
2015-May-28 22:16 185 7.2
2015-May-28 22:06 222 0 gusting 2 7.2